| time (UTC) | temp F | wind direction | speed MPH | gust MPH | rain 1hr in | rain 24hr in | rain mn in | humidity % | barometer mb |
| 20260506013009 | 50 | 285 | 0.0 | 3.0 | 0.00 | 0.00 | 0.00 | 60 | 1012.5 |
| 20260506011510 | 51 | 313 | 3.0 | 9.0 | 0.00 | 0.00 | 0.00 | 57 | 1012.5 |
| 20260506010020 | 52 | 300 | 4.0 | 10.0 | 0.00 | 0.00 | 0.00 | 52 | 1012.7 |
| 20260506004521 | 53 | 218 | 4.0 | 9.0 | 0.00 | 0.00 | 0.00 | 55 | 1012.4 |
| 20260506003005 | 53 | 211 | 5.0 | 8.0 | 0.00 | 0.00 | 0.00 | 53 | 1012.4 |
| 20260506001505 | 54 | 195 | 3.0 | 9.0 | 0.00 | 0.00 | 0.00 | 51 | 1012.3 |
| 20260506000013 | 56 | 202 | 2.0 | 9.0 | 0.00 | 0.00 | 0.00 | 49 | 1012.3 |
| 20260505234517 | 56 | 94 | 8.0 | 15.0 | 0.00 | 0.00 | 0.00 | 49 | 1012.3 |
| 20260505233022 | 57 | 259 | 6.0 | 14.0 | 0.00 | 0.00 | 0.00 | 46 | 1012.2 |
| 20260505231504 | 57 | 184 | 3.0 | 10.0 | 0.00 | 0.00 | 0.00 | 48 | 1012.2 |
| 20260505230032 | 55 | 204 | 7.0 | 11.0 | 0.00 | 0.00 | 0.00 | 54 | 1012.2 |
| 20260505224515 | 53 | 294 | 3.0 | 7.0 | 0.00 | 0.00 | 0.00 | 59 | 1012.4 |
| 20260505223022 | 51 | 183 | 2.0 | 10.0 | 0.00 | 0.00 | 0.00 | 66 | 1013.0 |
| 20260505221523 | 53 | 144 | 7.0 | 19.0 | 0.00 | 0.00 | 0.00 | 57 | 1012.9 |
| 20260505220010 | 54 | 195 | 5.0 | 17.0 | 0.00 | 0.00 | 0.00 | 56 | 1013.0 |
| 20260505214519 | 57 | 248 | 6.0 | 15.0 | 0.00 | 0.00 | 0.00 | 51 | 1012.8 |
| 20260505213025 | 58 | 240 | 5.0 | 12.0 | 0.00 | 0.00 | 0.00 | 52 | 1012.8 |
| 20260505211522 | 58 | 335 | 6.0 | 13.0 | 0.00 | 0.00 | 0.00 | 54 | 1013.0 |
| 20260505210030 | 55 | 258 | 5.0 | 14.0 | 0.00 | 0.00 | 0.00 | 55 | 1013.0 |
| 20260505204512 | 56 | 306 | 6.0 | 11.0 | 0.00 | 0.00 | 0.00 | 56 | 1013.2 |
| 20260505203020 | 57 | 293 | 4.0 | 12.0 | 0.00 | 0.00 | 0.00 | 56 | 1013.4 |
| 20260505201521 | 55 | 314 | 4.0 | 11.0 | 0.00 | 0.00 | 0.00 | 60 | 1013.4 |
| 20260505200033 | 55 | 299 | 4.0 | 15.0 | 0.00 | 0.00 | 0.00 | 59 | 1013.2 |
| 20260505194526 | 54 | 125 | 7.0 | 12.0 | 0.00 | 0.00 | 0.00 | 62 | 1013.3 |
| 20260505193011 | 52 | 114 | 7.0 | 15.0 | 0.00 | 0.00 | 0.00 | 74 | 1013.6 |
| 20260505191520 | 49 | 169 | 7.0 | 16.0 | 0.00 | 0.00 | 0.00 | 84 | 1013.6 |
| 20260505190004 | 51 | 160 | 8.0 | 14.0 | 0.00 | 0.00 | 0.00 | 69 | 1013.7 |
| 20260505184508 | 55 | 173 | 11.0 | 22.0 | 0.00 | 0.00 | 0.00 | 53 | 1013.7 |
| 20260505183011 | 57 | 190 | 8.0 | 15.0 | 0.00 | 0.00 | 0.00 | 51 | 1013.4 |
| 20260505181516 | 57 | 173 | 6.0 | 15.0 | 0.00 | 0.00 | 0.00 | 52 | 1013.6 |
| 20260505180004 | 55 | 184 | 7.0 | 13.0 | 0.00 | 0.00 | 0.00 | 52 | 1013.6 |
| 20260505174508 | 57 | 150 | 4.0 | 11.0 | 0.00 | 0.00 | 0.00 | 48 | 1013.8 |
| 20260505173030 | 55 | 151 | 4.0 | 9.0 | 0.00 | 0.00 | 0.00 | 53 | 1013.7 |
| 20260505171516 | 54 | 193 | 4.0 | 9.0 | 0.00 | 0.00 | 0.00 | 54 | 1014.1 |
| 20260505170025 | 52 | 211 | 2.0 | 5.0 | 0.00 | 0.00 | 0.00 | 55 | 1014.0 |
| 20260505164503 | 51 | 316 | 2.0 | 8.0 | 0.00 | 0.00 | 0.00 | 58 | 1013.9 |
| 20260505163013 | 49 | 315 | 2.0 | 9.0 | 0.00 | 0.00 | 0.00 | 60 | 1014.1 |
| 20260505161514 | 49 | 310 | 4.0 | 12.0 | 0.00 | 0.00 | 0.00 | 59 | 1014.6 |
| 20260505153010 | 50 | 299 | 6.0 | 11.0 | 0.00 | 0.00 | 0.00 | 57 | 1014.9 |
| 20260505151507 | 49 | 279 | 5.0 | 11.0 | 0.00 | 0.00 | 0.00 | 58 | 1014.9 |
| 20260505124525 | 50 | 195 | 2.0 | 6.0 | 0.00 | 0.00 | 0.00 | 49 | 1014.5 |
| 20260505123019 | 50 | 195 | 2.0 | 7.0 | 0.00 | 0.00 | 0.00 | 47 | 1014.4 |
| 20260505121530 | 50 | 207 | 3.0 | 5.0 | 0.00 | 0.00 | 0.00 | 45 | 1014.5 |
| 20260505120027 | 50 | 238 | 1.0 | 6.0 | 0.00 | 0.00 | 0.00 | 44 | 1014.1 |
| 20260505114529 | 50 | 214 | 2.0 | 5.0 | 0.00 | 0.00 | 0.00 | 42 | 1013.9 |
| 20260505113016 | 51 | 217 | 4.0 | 8.0 | 0.00 | 0.00 | 0.00 | 39 | 1014.1 |
| 20260505111528 | 51 | 211 | 2.0 | 7.0 | 0.00 | 0.00 | 0.00 | 38 | 1014.2 |
| 20260505101524 | 53 | 280 | 0.0 | 5.0 | 0.00 | 0.00 | 0.00 | 33 | 1014.0 |
| 20260505100006 | 54 | 304 | 2.0 | 14.0 | 0.00 | 0.00 | 0.00 | 24 | 1013.8 |
| 20260505094506 | 54 | 342 | 6.0 | 15.0 | 0.00 | 0.00 | 0.00 | 23 | 1013.4 |
| 20260505093014 | 53 | 298 | 6.0 | 11.0 | 0.00 | 0.00 | 0.00 | 34 | 1013.6 |
| 20260505091508 | 53 | 294 | 3.0 | 10.0 | 0.00 | 0.00 | 0.00 | 36 | 1013.8 |
| 20260505090005 | 54 | 291 | 3.0 | 10.0 | 0.00 | 0.00 | 0.00 | 38 | 1014.1 |
| 20260505084504 | 54 | 307 | 2.0 | 8.0 | 0.00 | 0.00 | 0.00 | 37 | 1014.1 |
| 20260505083011 | 54 | 228 | 3.0 | 9.0 | 0.00 | 0.00 | 0.00 | 38 | 1014.2 |
| 20260505081513 | 55 | 186 | 4.0 | 9.0 | 0.00 | 0.00 | 0.00 | 37 | 1014.6 |
| 20260505080014 | 55 | 220 | 3.0 | 10.0 | 0.00 | 0.00 | 0.00 | 36 | 1014.8 |
| 20260505074506 | 56 | 255 | 3.0 | 15.0 | 0.00 | 0.00 | 0.00 | 34 | 1014.5 |
| 20260505073010 | 56 | 232 | 7.0 | 11.0 | 0.00 | 0.00 | 0.00 | 34 | 1014.5 |
| 20260505071524 | 56 | 269 | 2.0 | 9.0 | 0.00 | 0.00 | 0.00 | 34 | 1014.7 |
| 20260505070015 | 56 | 250 | 0.0 | 3.0 | 0.00 | 0.00 | 0.00 | 34 | 1014.8 |
| 20260505064518 | 56 | 197 | 0.0 | 3.0 | 0.00 | 0.00 | 0.00 | 34 | 1014.7 |
| 20260505063005 | 57 | 304 | 1.0 | 4.0 | 0.00 | 0.00 | 0.00 | 31 | 1014.7 |
| 20260505061523 | 57 | 185 | 1.0 | 6.0 | 0.00 | 0.00 | 0.00 | 31 | 1015.0 |
| 20260505060017 | 58 | 215 | 1.0 | 10.0 | 0.00 | 0.00 | 0.00 | 30 | 1014.7 |
| 20260505054523 | 58 | 171 | 5.0 | 11.0 | 0.00 | 0.00 | 0.00 | 29 | 1014.5 |
| 20260505053020 | 59 | 190 | 3.0 | 9.0 | 0.00 | 0.00 | 0.00 | 29 | 1014.4 |
| 20260505051510 | 59 | 188 | 3.0 | 12.0 | 0.00 | 0.00 | 0.00 | 28 | 1014.3 |
| 20260505041523 | 60 | 247 | 5.0 | 14.0 | 0.00 | 0.00 | 0.00 | 29 | 1014.2 |
| 20260505040013 | 60 | 5 | 6.0 | 14.0 | 0.00 | 0.00 | 0.00 | 28 | 1014.4 |
| 20260505034518 | 60 | 202 | 6.0 | 12.0 | 0.00 | 0.00 | 0.00 | 28 | 1014.3 |
| 20260505033031 | 61 | 215 | 7.0 | 16.0 | 0.00 | 0.00 | 0.00 | 26 | 1014.2 |
| 20260505031521 | 62 | 208 | 3.0 | 14.0 | 0.00 | 0.00 | 0.00 | 26 | 1013.9 |
| 20260505030022 | 63 | 200 | 8.0 | 22.0 | 0.00 | 0.00 | 0.00 | 24 | 1013.7 |
| 20260505024529 | 63 | 209 | 5.0 | 17.0 | 0.00 | 0.00 | 0.00 | 25 | 1013.6 |
| 20260505023018 | 63 | 227 | 2.0 | 9.0 | 0.00 | 0.00 | 0.00 | 25 | 1013.8 |
| 20260505021541 | 64 | 207 | 5.0 | 9.0 | 0.00 | 0.00 | 0.00 | 25 | 1013.6 |
| 20260505020026 | 64 | 227 | 2.0 | 14.0 | 0.00 | 0.00 | 0.00 | 24 | 1013.5 |
| 20260505014527 | 64 | 293 | 12.0 | 20.0 | 0.00 | 0.00 | 0.00 | 25 | 1013.4 |